Location: Grand Rapids
(42.9630°N, 85.6680°W)
Time: 15:07:27
(UTC-04:00)

ISS - Visible Passes

Search period start: 01 October 2023 00:00
Search period end: 11 October 2023 00:00
Orbit: 414 x 421 km, 51.6° (Epoch: 01 October)

Date Brightness Start Highest point End Pass type
(mag) Time Alt. Az. Time Alt. Az. Time Alt. Az.
01 Oct -2.7 21:05:43 10° WNW 21:08:52 39° SW 21:09:28 35° SSW visible
02 Oct -3.5 20:17:29 10° WNW 20:20:48 67° SW 20:23:34 14° SE visible
03 Oct -1.0 21:07:04 10° W 21:09:00 15° SW 21:10:42 11° SSW visible
04 Oct -1.6 20:18:07 10° W 20:20:53 24° SW 20:23:39 10° SSE visible
